Year,Month,Day,Hour,Minute,Value (Times are PST for windspeed in km/hr)
2018,12,20,00,00,1.20
2018,12,20,00,01,0.70
2018,12,20,00,02,0.10
2018,12,20,00,03,0.00
2018,12,20,00,04,1.90
2018,12,20,00,05,2.40
2018,12,20,00,06,1.50
2018,12,20,00,07,2.10
2018,12,20,00,08,1.50
2018,12,20,00,09,0.20
2018,12,20,00,10,0.00
2018,12,20,00,11,0.20
2018,12,20,00,12,0.10
2018,12,20,00,13,1.80
2018,12,20,00,14,2.30
2018,12,20,00,15,0.50
2018,12,20,00,16,0.50
2018,12,20,00,17,0.50
2018,12,20,00,18,0.00
2018,12,20,00,19,0.00
2018,12,20,00,20,0.00
2018,12,20,00,21,0.00
2018,12,20,00,22,4.20
2018,12,20,00,23,3.90
2018,12,20,00,24,3.40
2018,12,20,00,25,2.90
2018,12,20,00,26,3.90
2018,12,20,00,27,4.50
2018,12,20,00,28,4.90
2018,12,20,00,29,5.30
2018,12,20,00,30,4.90
2018,12,20,00,31,7.50
2018,12,20,00,32,5.60
2018,12,20,00,33,3.30
2018,12,20,00,34,1.00
2018,12,20,00,35,3.00
2018,12,20,00,36,2.10
2018,12,20,00,37,6.10
2018,12,20,00,38,9.70
2018,12,20,00,39,7.20
2018,12,20,00,40,7.50
2018,12,20,00,41,5.20
2018,12,20,00,42,5.90
2018,12,20,00,43,6.70
2018,12,20,00,44,3.80
2018,12,20,00,45,6.70
2018,12,20,00,46,6.10
2018,12,20,00,47,4.90
2018,12,20,00,48,5.40
2018,12,20,00,49,8.00
2018,12,20,00,50,3.60
2018,12,20,00,51,4.70
2018,12,20,00,52,4.60
2018,12,20,00,53,3.80
2018,12,20,00,54,2.00
2018,12,20,00,55,2.50
2018,12,20,00,56,7.10
2018,12,20,00,57,3.50
2018,12,20,00,58,5.30
2018,12,20,00,59,7.70
2018,12,20,01,00,4.40
2018,12,20,01,01,2.40
2018,12,20,01,02,4.50
2018,12,20,01,03,5.40
2018,12,20,01,04,3.40
2018,12,20,01,05,5.10
2018,12,20,01,06,3.10
2018,12,20,01,07,5.10
2018,12,20,01,08,6.70
2018,12,20,01,09,3.80
2018,12,20,01,10,3.20
2018,12,20,01,11,2.10
2018,12,20,01,12,4.40
2018,12,20,01,13,3.70
2018,12,20,01,14,2.50
2018,12,20,01,15,4.00
2018,12,20,01,16,4.50
2018,12,20,01,17,6.60
2018,12,20,01,18,4.40
2018,12,20,01,19,4.70
2018,12,20,01,20,4.70
2018,12,20,01,21,3.40
2018,12,20,01,22,1.80
2018,12,20,01,23,3.40
2018,12,20,01,24,3.00
2018,12,20,01,25,2.30
2018,12,20,01,26,5.50
2018,12,20,01,27,1.80
2018,12,20,01,28,4.10
2018,12,20,01,29,3.70
2018,12,20,01,30,2.00
2018,12,20,01,31,1.90
2018,12,20,01,32,1.00
2018,12,20,01,33,2.00
2018,12,20,01,34,3.70
2018,12,20,01,35,3.70
2018,12,20,01,36,5.60
2018,12,20,01,37,4.70
2018,12,20,01,38,1.60
2018,12,20,01,39,3.10
2018,12,20,01,40,1.70
2018,12,20,01,41,2.70
2018,12,20,01,42,2.80
2018,12,20,01,43,2.00
2018,12,20,01,44,1.00
2018,12,20,01,45,2.30
2018,12,20,01,46,0.20
2018,12,20,01,47,0.00
2018,12,20,01,48,0.00
2018,12,20,01,49,0.40
2018,12,20,01,50,2.60
2018,12,20,01,51,0.50
2018,12,20,01,52,2.80
2018,12,20,01,53,0.50
2018,12,20,01,54,0.00
2018,12,20,01,55,0.00
2018,12,20,01,56,1.00
2018,12,20,01,57,3.80
2018,12,20,01,58,3.00
2018,12,20,01,59,0.80
2018,12,20,02,00,0.50
2018,12,20,02,01,1.80
2018,12,20,02,02,1.30
2018,12,20,02,03,0.30
2018,12,20,02,04,1.90
2018,12,20,02,05,4.00
2018,12,20,02,06,3.20
2018,12,20,02,07,0.60
2018,12,20,02,08,0.10
2018,12,20,02,09,0.00
2018,12,20,02,10,2.30
2018,12,20,02,11,2.10
2018,12,20,02,12,1.20
2018,12,20,02,13,0.00
2018,12,20,02,14,0.00
2018,12,20,02,15,0.00
2018,12,20,02,16,0.00
2018,12,20,02,17,0.00
2018,12,20,02,18,0.00
2018,12,20,02,19,2.50
2018,12,20,02,20,0.80
2018,12,20,02,21,0.10
2018,12,20,02,22,0.00
2018,12,20,02,23,0.80
2018,12,20,02,24,2.10
2018,12,20,02,25,0.10
2018,12,20,02,26,0.50
2018,12,20,02,27,0.40
2018,12,20,02,28,0.00
2018,12,20,02,29,0.70
2018,12,20,02,30,2.30
2018,12,20,02,31,1.90
2018,12,20,02,32,0.70
2018,12,20,02,33,0.60
2018,12,20,02,34,0.90
2018,12,20,02,35,1.60
2018,12,20,02,36,1.60
2018,12,20,02,37,2.60
2018,12,20,02,38,2.40
2018,12,20,02,39,0.00
2018,12,20,02,40,0.50
2018,12,20,02,41,3.10
2018,12,20,02,42,1.90
2018,12,20,02,43,2.80
2018,12,20,02,44,0.50
2018,12,20,02,45,1.50
2018,12,20,02,46,0.10
2018,12,20,02,47,1.30
2018,12,20,02,48,0.00
2018,12,20,02,49,0.00
2018,12,20,02,50,0.00
2018,12,20,02,51,0.00
2018,12,20,02,52,0.00
2018,12,20,02,53,0.00
2018,12,20,02,54,0.00
2018,12,20,02,55,0.00
2018,12,20,02,56,0.00
2018,12,20,02,57,0.00
2018,12,20,02,58,3.70
2018,12,20,02,59,2.90
2018,12,20,03,00,2.20
2018,12,20,03,01,0.00
2018,12,20,03,02,0.00
2018,12,20,03,03,0.10
2018,12,20,03,04,0.80
2018,12,20,03,05,1.70
2018,12,20,03,06,1.30
2018,12,20,03,07,0.20
2018,12,20,03,08,0.20
2018,12,20,03,09,0.00
2018,12,20,03,10,0.00
2018,12,20,03,11,0.00
2018,12,20,03,12,0.00
2018,12,20,03,13,0.00
2018,12,20,03,14,0.00
2018,12,20,03,15,0.00
2018,12,20,03,16,0.00
2018,12,20,03,17,0.00
2018,12,20,03,18,0.00
2018,12,20,03,19,0.00
2018,12,20,03,20,2.70
2018,12,20,03,21,2.20
2018,12,20,03,22,2.10
2018,12,20,03,23,0.70
2018,12,20,03,24,0.00
2018,12,20,03,25,0.00
2018,12,20,03,26,0.00
2018,12,20,03,27,0.00
2018,12,20,03,28,0.00
2018,12,20,03,29,0.00
2018,12,20,03,30,0.00
2018,12,20,03,31,0.00
2018,12,20,03,32,0.00
2018,12,20,03,33,0.00
2018,12,20,03,34,0.00
2018,12,20,03,35,0.00
2018,12,20,03,36,0.00
2018,12,20,03,37,0.00
2018,12,20,03,38,0.00
2018,12,20,03,39,0.00
2018,12,20,03,40,0.00
2018,12,20,03,41,1.20
2018,12,20,03,42,2.80
2018,12,20,03,43,1.90
2018,12,20,03,44,0.60
2018,12,20,03,45,0.20
2018,12,20,03,46,1.10
2018,12,20,03,47,0.00
2018,12,20,03,48,0.00
2018,12,20,03,49,0.00
2018,12,20,03,50,0.00
2018,12,20,03,51,0.00
2018,12,20,03,52,1.00
2018,12,20,03,53,1.80
2018,12,20,03,54,1.90
2018,12,20,03,55,0.20
2018,12,20,03,56,0.00
2018,12,20,03,57,0.00
2018,12,20,03,58,0.00
2018,12,20,03,59,0.00
2018,12,20,04,00,0.10
2018,12,20,04,01,0.70
2018,12,20,04,02,2.60
2018,12,20,04,03,1.50
2018,12,20,04,04,0.50
2018,12,20,04,05,0.00
2018,12,20,04,06,0.00
2018,12,20,04,07,0.00
2018,12,20,04,08,0.50
2018,12,20,04,09,0.00
2018,12,20,04,10,0.00
2018,12,20,04,11,1.80
2018,12,20,04,12,2.80
2018,12,20,04,13,0.10
2018,12,20,04,14,0.70
2018,12,20,04,15,1.80
2018,12,20,04,16,1.50
2018,12,20,04,17,0.60
2018,12,20,04,18,2.40
2018,12,20,04,19,0.00
2018,12,20,04,20,0.00
2018,12,20,04,21,0.00
2018,12,20,04,22,0.00
2018,12,20,04,23,0.00
2018,12,20,04,24,4.00
2018,12,20,04,25,4.60
2018,12,20,04,26,2.40
2018,12,20,04,27,3.30
2018,12,20,04,28,4.10
2018,12,20,04,29,3.80
2018,12,20,04,30,2.30
2018,12,20,04,31,1.00
2018,12,20,04,32,1.50
2018,12,20,04,33,0.40
2018,12,20,04,34,3.30
2018,12,20,04,35,2.60
2018,12,20,04,36,5.50
2018,12,20,04,37,5.10
2018,12,20,04,38,5.10
2018,12,20,04,39,4.10
2018,12,20,04,40,2.30
2018,12,20,04,41,1.70
2018,12,20,04,42,2.80
2018,12,20,04,43,4.60
2018,12,20,04,44,4.40
2018,12,20,04,45,4.70
2018,12,20,04,46,1.40
2018,12,20,04,47,2.90
2018,12,20,04,48,2.10
2018,12,20,04,49,3.10
2018,12,20,04,50,4.90
2018,12,20,04,51,2.30
2018,12,20,04,52,6.70
2018,12,20,04,53,3.90
2018,12,20,04,54,6.90
2018,12,20,04,55,5.40
2018,12,20,04,56,5.70
2018,12,20,04,57,4.30
2018,12,20,04,58,3.20
2018,12,20,04,59,6.70
2018,12,20,05,00,7.20
2018,12,20,05,01,6.80
2018,12,20,05,02,6.30
2018,12,20,05,03,6.30
2018,12,20,05,04,3.20
2018,12,20,05,05,2.00
2018,12,20,05,06,4.10
2018,12,20,05,07,4.20
2018,12,20,05,08,2.60
2018,12,20,05,09,4.30
2018,12,20,05,10,3.10
2018,12,20,05,11,2.80
2018,12,20,05,12,3.40
2018,12,20,05,13,2.10
2018,12,20,05,14,4.50
2018,12,20,05,15,3.80
2018,12,20,05,16,1.80
2018,12,20,05,17,0.10
2018,12,20,05,18,0.00
2018,12,20,05,19,0.10
2018,12,20,05,20,2.80
2018,12,20,05,21,2.70
2018,12,20,05,22,2.00
2018,12,20,05,23,1.20
2018,12,20,05,24,1.80
2018,12,20,05,25,2.90
2018,12,20,05,26,4.20
2018,12,20,05,27,4.60
2018,12,20,05,28,0.60
2018,12,20,05,29,0.20
2018,12,20,05,30,0.80
2018,12,20,05,31,0.90
2018,12,20,05,32,1.90
2018,12,20,05,33,0.10
2018,12,20,05,34,0.00
2018,12,20,05,35,0.00
2018,12,20,05,36,0.50
2018,12,20,05,37,0.00
2018,12,20,05,38,2.50
2018,12,20,05,39,4.80
2018,12,20,05,40,4.70
2018,12,20,05,41,3.10
2018,12,20,05,42,3.60
2018,12,20,05,43,0.90
2018,12,20,05,44,0.10
2018,12,20,05,45,3.60
2018,12,20,05,46,0.50
2018,12,20,05,47,0.00
2018,12,20,05,48,0.00
2018,12,20,05,49,0.50
2018,12,20,05,50,0.10
2018,12,20,05,51,0.30
2018,12,20,05,52,0.90
2018,12,20,05,53,0.70
2018,12,20,05,54,1.10
2018,12,20,05,55,2.50
2018,12,20,05,56,1.70
2018,12,20,05,57,2.00
2018,12,20,05,58,2.10
2018,12,20,05,59,1.70
2018,12,20,06,00,0.40
2018,12,20,06,01,0.00
2018,12,20,06,02,0.00
2018,12,20,06,03,3.50
2018,12,20,06,04,5.70
2018,12,20,06,05,2.80
2018,12,20,06,06,3.20
2018,12,20,06,07,2.40
2018,12,20,06,08,0.80
2018,12,20,06,09,2.90
2018,12,20,06,10,1.50
2018,12,20,06,11,0.00
2018,12,20,06,12,0.00
2018,12,20,06,13,0.00
2018,12,20,06,14,0.00
2018,12,20,06,15,0.00
2018,12,20,06,16,0.00
2018,12,20,06,17,0.00
2018,12,20,06,18,0.00
2018,12,20,06,19,0.00
2018,12,20,06,20,0.00
2018,12,20,06,21,0.00
2018,12,20,06,22,0.00
2018,12,20,06,23,0.00
2018,12,20,06,24,0.00
2018,12,20,06,25,0.00
2018,12,20,06,26,2.30
2018,12,20,06,27,4.40
2018,12,20,06,28,0.80
2018,12,20,06,29,1.10
2018,12,20,06,30,4.00
2018,12,20,06,31,5.10
2018,12,20,06,32,5.10
2018,12,20,06,33,5.00
2018,12,20,06,34,7.40
2018,12,20,06,35,8.70
2018,12,20,06,36,6.60
2018,12,20,06,37,4.10
2018,12,20,06,38,2.00
2018,12,20,06,39,4.70
2018,12,20,06,40,4.80
2018,12,20,06,41,2.60
2018,12,20,06,42,0.00
2018,12,20,06,43,0.00
2018,12,20,06,44,0.00
2018,12,20,06,45,0.00
2018,12,20,06,46,0.00
2018,12,20,06,47,0.00
2018,12,20,06,48,0.00
2018,12,20,06,49,0.00
2018,12,20,06,50,0.00
2018,12,20,06,51,0.00
2018,12,20,06,52,0.00
2018,12,20,06,53,0.00
2018,12,20,06,54,0.00
2018,12,20,06,55,0.20
2018,12,20,06,56,4.70
2018,12,20,06,57,4.80
2018,12,20,06,58,2.30
2018,12,20,06,59,0.80
2018,12,20,07,00,1.30
2018,12,20,07,01,2.20
2018,12,20,07,02,4.10
2018,12,20,07,03,1.80
2018,12,20,07,04,0.00
2018,12,20,07,05,0.00
2018,12,20,07,06,0.00
2018,12,20,07,07,0.00
2018,12,20,07,08,0.00
2018,12,20,07,09,0.00
2018,12,20,07,10,0.00
2018,12,20,07,11,1.80
2018,12,20,07,12,7.50
2018,12,20,07,13,2.80
2018,12,20,07,14,1.40
2018,12,20,07,15,4.70
2018,12,20,07,16,10.20
2018,12,20,07,17,16.80
2018,12,20,07,18,5.80
2018,12,20,07,19,1.40
2018,12,20,07,20,6.30
2018,12,20,07,21,14.90
2018,12,20,07,22,18.00
2018,12,20,07,23,16.60
2018,12,20,07,24,9.90
2018,12,20,07,25,12.00
2018,12,20,07,26,10.00
2018,12,20,07,27,10.70
2018,12,20,07,28,17.30
2018,12,20,07,29,12.30
2018,12,20,07,30,11.40
2018,12,20,07,31,17.60
2018,12,20,07,32,15.30
2018,12,20,07,33,8.40
2018,12,20,07,34,4.40
2018,12,20,07,35,12.20
2018,12,20,07,36,17.60
2018,12,20,07,37,19.90
2018,12,20,07,38,21.50
2018,12,20,07,39,19.40
2018,12,20,07,40,17.20
2018,12,20,07,41,12.50
2018,12,20,07,42,10.20
2018,12,20,07,43,9.40
2018,12,20,07,44,18.10
2018,12,20,07,45,11.30
2018,12,20,07,46,11.90
2018,12,20,07,47,15.80
2018,12,20,07,48,17.30
2018,12,20,07,49,20.50
2018,12,20,07,50,24.90
2018,12,20,07,51,16.10
2018,12,20,07,52,8.50
2018,12,20,07,53,4.50
2018,12,20,07,54,6.40
2018,12,20,07,55,11.60
2018,12,20,07,56,6.40
2018,12,20,07,57,7.10
2018,12,20,07,58,7.00
2018,12,20,07,59,12.90
2018,12,20,08,00,7.80
2018,12,20,08,01,10.40
2018,12,20,08,02,11.50
2018,12,20,08,03,8.60
2018,12,20,08,04,9.30
2018,12,20,08,05,11.00
2018,12,20,08,06,18.80
2018,12,20,08,07,13.20
2018,12,20,08,08,10.10
2018,12,20,08,09,5.20
2018,12,20,08,10,7.60
2018,12,20,08,11,7.40
2018,12,20,08,12,23.10
2018,12,20,08,13,16.60
2018,12,20,08,14,16.90
2018,12,20,08,15,18.30
2018,12,20,08,16,14.50
2018,12,20,08,17,12.40
2018,12,20,08,18,19.50
2018,12,20,08,19,16.80
2018,12,20,08,20,17.90
2018,12,20,08,21,32.20
2018,12,20,08,22,19.20
2018,12,20,08,23,20.00
2018,12,20,08,24,15.20
2018,12,20,08,25,19.40
2018,12,20,08,26,16.70
2018,12,20,08,27,14.60
2018,12,20,08,28,25.50
2018,12,20,08,29,17.80
2018,12,20,08,30,19.80
2018,12,20,08,31,15.70
2018,12,20,08,32,12.30
2018,12,20,08,33,14.00
2018,12,20,08,34,8.00
2018,12,20,08,35,13.20
2018,12,20,08,36,18.90
2018,12,20,08,37,19.90
2018,12,20,08,38,32.70
2018,12,20,08,39,21.90
2018,12,20,08,40,22.30
2018,12,20,08,41,34.30
2018,12,20,08,42,20.30
2018,12,20,08,43,18.20
2018,12,20,08,44,29.10
2018,12,20,08,45,12.20
2018,12,20,08,46,17.20
2018,12,20,08,47,19.70
2018,12,20,08,48,18.10
2018,12,20,08,49,17.60
2018,12,20,08,50,18.80
2018,12,20,08,51,12.20
2018,12,20,08,52,12.70
2018,12,20,08,53,23.70
2018,12,20,08,54,12.10
2018,12,20,08,55,12.70
2018,12,20,08,56,16.20
2018,12,20,08,57,15.20
2018,12,20,08,58,9.20
2018,12,20,08,59,10.30
2018,12,20,09,00,24.30
2018,12,20,09,01,23.20
2018,12,20,09,02,27.50
2018,12,20,09,03,26.10
2018,12,20,09,04,17.50
2018,12,20,09,05,17.60
2018,12,20,09,06,24.70
2018,12,20,09,07,20.20
2018,12,20,09,08,23.50
2018,12,20,09,09,25.60
2018,12,20,09,10,28.40
2018,12,20,09,11,31.10
2018,12,20,09,12,27.40
2018,12,20,09,13,27.30
2018,12,20,09,14,23.60
2018,12,20,09,15,24.80
2018,12,20,09,16,27.70
2018,12,20,09,17,26.80
2018,12,20,09,18,24.90
2018,12,20,09,19,24.40
2018,12,20,09,20,20.20
2018,12,20,09,21,25.60
2018,12,20,09,22,24.40
2018,12,20,09,23,22.70
2018,12,20,09,24,30.00
2018,12,20,09,25,26.30
2018,12,20,09,26,22.70
2018,12,20,09,27,29.00
2018,12,20,09,28,19.30
2018,12,20,09,29,31.20
2018,12,20,09,30,22.70
2018,12,20,09,31,22.10
2018,12,20,09,32,17.90
2018,12,20,09,33,24.10
2018,12,20,09,34,27.50
2018,12,20,09,35,22.80
2018,12,20,09,36,25.70
2018,12,20,09,37,21.60
2018,12,20,09,38,15.40
2018,12,20,09,39,21.30
2018,12,20,09,40,26.00
2018,12,20,09,41,17.50
2018,12,20,09,42,17.80
2018,12,20,09,43,20.60
2018,12,20,09,44,18.80
2018,12,20,09,45,18.20
2018,12,20,09,46,17.10
2018,12,20,09,47,26.80
2018,12,20,09,48,14.50
2018,12,20,09,49,22.70
2018,12,20,09,50,27.50
2018,12,20,09,51,25.80
2018,12,20,09,52,27.70
2018,12,20,09,53,26.40
2018,12,20,09,54,27.80
2018,12,20,09,55,18.50
2018,12,20,09,56,18.40
2018,12,20,09,57,13.70
2018,12,20,09,58,20.90
2018,12,20,09,59,28.30
2018,12,20,10,00,23.80
2018,12,20,10,01,35.00
2018,12,20,10,02,16.30
2018,12,20,10,03,14.00
2018,12,20,10,04,31.90
2018,12,20,10,05,24.10
2018,12,20,10,06,19.10
2018,12,20,10,07,16.60
2018,12,20,10,08,16.60
2018,12,20,10,09,23.10
2018,12,20,10,10,26.70
2018,12,20,10,11,28.20
2018,12,20,10,12,29.90
2018,12,20,10,13,31.10
2018,12,20,10,14,23.20
2018,12,20,10,15,26.60
2018,12,20,10,16,18.40
2018,12,20,10,17,17.00
2018,12,20,10,18,27.60
2018,12,20,10,19,22.90
2018,12,20,10,20,26.70
2018,12,20,10,21,20.30
2018,12,20,10,22,24.40
2018,12,20,10,23,24.00
2018,12,20,10,24,25.50
2018,12,20,10,25,19.10
2018,12,20,10,26,28.40
2018,12,20,10,27,29.40
2018,12,20,10,28,17.40
2018,12,20,10,29,18.70
2018,12,20,10,30,15.50
2018,12,20,10,31,15.70
2018,12,20,10,32,7.60
2018,12,20,10,33,16.80
2018,12,20,10,34,19.60
2018,12,20,10,35,12.60
2018,12,20,10,36,24.00
2018,12,20,10,37,24.30
2018,12,20,10,38,16.80
2018,12,20,10,39,22.90
2018,12,20,10,40,27.40
2018,12,20,10,41,25.40
2018,12,20,10,42,26.10
2018,12,20,10,43,23.50
2018,12,20,10,44,14.20
2018,12,20,10,45,25.80
2018,12,20,10,46,20.60
2018,12,20,10,47,10.90
2018,12,20,10,48,19.20
2018,12,20,10,49,9.90
2018,12,20,10,50,15.10
2018,12,20,10,51,17.40
2018,12,20,10,52,17.30
2018,12,20,10,53,24.40
2018,12,20,10,54,25.40
2018,12,20,10,55,22.00
2018,12,20,10,56,20.30
2018,12,20,10,57,17.70
2018,12,20,10,58,14.50
2018,12,20,10,59,22.30
2018,12,20,11,00,16.20
2018,12,20,11,01,17.60
2018,12,20,11,02,14.50
2018,12,20,11,03,13.40
2018,12,20,11,04,22.90
2018,12,20,11,05,12.80
2018,12,20,11,06,15.90
2018,12,20,11,07,26.50
2018,12,20,11,08,16.90
2018,12,20,11,09,13.90
2018,12,20,11,10,13.10
2018,12,20,11,11,20.20
2018,12,20,11,12,25.20
2018,12,20,11,13,20.80
2018,12,20,11,14,16.50
2018,12,20,11,15,27.80
2018,12,20,11,16,14.90
2018,12,20,11,17,16.80
2018,12,20,11,18,26.40
2018,12,20,11,19,26.70
2018,12,20,11,20,28.30
2018,12,20,11,21,22.60
2018,12,20,11,22,36.40
2018,12,20,11,23,25.00
2018,12,20,11,24,25.60
2018,12,20,11,25,12.10
2018,12,20,11,26,19.10
2018,12,20,11,27,18.70
2018,12,20,11,28,19.80
2018,12,20,11,29,21.10
2018,12,20,11,30,16.90
2018,12,20,11,31,12.00
2018,12,20,11,32,15.10
2018,12,20,11,33,16.10
2018,12,20,11,34,12.50
2018,12,20,11,35,22.30
2018,12,20,11,36,21.20
2018,12,20,11,37,19.50
2018,12,20,11,38,21.80
2018,12,20,11,39,22.10
2018,12,20,11,40,17.30
2018,12,20,11,41,16.30
2018,12,20,11,42,19.70
2018,12,20,11,43,18.00
2018,12,20,11,44,26.70
2018,12,20,11,45,26.00
2018,12,20,11,46,21.50
2018,12,20,11,47,19.20
2018,12,20,11,48,33.40
2018,12,20,11,49,32.50
2018,12,20,11,50,22.00
2018,12,20,11,51,14.30
2018,12,20,11,52,20.10
2018,12,20,11,53,22.20
2018,12,20,11,54,14.50
2018,12,20,11,55,13.00
2018,12,20,11,56,11.10
2018,12,20,11,57,15.70
2018,12,20,11,58,14.00
2018,12,20,11,59,10.70
2018,12,20,12,00,9.40
2018,12,20,12,01,14.20
2018,12,20,12,02,17.90
2018,12,20,12,03,23.50
2018,12,20,12,04,15.90
2018,12,20,12,05,17.90
2018,12,20,12,06,13.00
2018,12,20,12,07,13.30
2018,12,20,12,08,17.70
2018,12,20,12,09,13.70
2018,12,20,12,10,20.60
2018,12,20,12,11,17.60
2018,12,20,12,12,12.80
2018,12,20,12,13,18.00
2018,12,20,12,14,13.90
2018,12,20,12,15,13.30
2018,12,20,12,16,14.10
2018,12,20,12,17,19.80
2018,12,20,12,18,24.60
2018,12,20,12,19,26.10
2018,12,20,12,20,16.30
2018,12,20,12,21,33.70
2018,12,20,12,22,21.40
2018,12,20,12,23,15.50
2018,12,20,12,24,36.50
2018,12,20,12,25,32.30
2018,12,20,12,26,21.60
2018,12,20,12,27,20.60
2018,12,20,12,28,29.80
2018,12,20,12,29,17.00
2018,12,20,12,30,25.00
2018,12,20,12,31,13.80
2018,12,20,12,32,18.10
2018,12,20,12,33,17.10
2018,12,20,12,34,28.70
2018,12,20,12,35,29.80
2018,12,20,12,36,24.40
2018,12,20,12,37,36.00
2018,12,20,12,38,25.00
2018,12,20,12,39,39.90
2018,12,20,12,40,41.40
2018,12,20,12,41,24.60
2018,12,20,12,42,18.30
2018,12,20,12,43,20.50
2018,12,20,12,44,31.00
2018,12,20,12,45,32.50
2018,12,20,12,46,33.10
2018,12,20,12,47,26.70
2018,12,20,12,48,15.60
2018,12,20,12,49,12.70
2018,12,20,12,50,29.20
2018,12,20,12,51,22.50
2018,12,20,12,52,30.70
2018,12,20,12,53,32.90
2018,12,20,12,54,34.60
2018,12,20,12,55,33.00
2018,12,20,12,56,32.30
2018,12,20,12,57,26.40
2018,12,20,12,58,33.10
2018,12,20,12,59,27.00
2018,12,20,13,00,37.10
2018,12,20,13,01,30.70
2018,12,20,13,02,28.90
2018,12,20,13,03,31.50
2018,12,20,13,04,43.40
2018,12,20,13,05,35.80
2018,12,20,13,06,29.00
2018,12,20,13,07,28.20
2018,12,20,13,08,40.90
2018,12,20,13,09,35.00
2018,12,20,13,10,29.80
2018,12,20,13,11,39.70
2018,12,20,13,12,44.20
2018,12,20,13,13,41.30
2018,12,20,13,14,35.40
2018,12,20,13,15,30.00
2018,12,20,13,16,22.70
2018,12,20,13,17,35.90
2018,12,20,13,18,38.20
2018,12,20,13,19,38.90
2018,12,20,13,20,31.40
2018,12,20,13,21,41.50
2018,12,20,13,25,33.40
2018,12,20,13,26,44.70
2018,12,20,13,27,38.60
2018,12,20,13,28,40.40
2018,12,20,13,29,38.50
2018,12,20,13,30,33.60
2018,12,20,13,31,34.90
2018,12,20,13,32,36.30
2018,12,20,13,35,35.40
2018,12,20,13,36,39.80
2018,12,20,13,37,28.50
2018,12,20,13,38,31.20
2018,12,20,13,39,21.10
2018,12,20,13,40,27.70
2018,12,20,13,41,31.50
2018,12,20,13,42,29.00
2018,12,20,13,43,29.00
2018,12,20,13,44,34.70
2018,12,20,13,45,22.20
2018,12,20,13,46,23.00
2018,12,20,13,47,23.50
2018,12,20,13,48,26.90
2018,12,20,13,49,20.00
2018,12,20,13,50,35.90
2018,12,20,13,51,34.30
2018,12,20,13,52,17.90
2018,12,20,13,53,26.70
2018,12,20,13,54,21.00
2018,12,20,13,55,26.20
2018,12,20,13,56,25.50
2018,12,20,13,57,27.40
2018,12,20,13,58,27.40
2018,12,20,13,59,24.50
2018,12,20,14,00,19.60
2018,12,20,14,01,24.70
2018,12,20,14,02,28.20
2018,12,20,14,03,20.90
2018,12,20,14,04,15.40
2018,12,20,14,05,26.00
2018,12,20,14,06,14.20
2018,12,20,14,07,19.90
2018,12,20,14,08,22.50
2018,12,20,14,09,29.10
2018,12,20,14,10,24.80
2018,12,20,14,11,21.90
2018,12,20,14,12,31.70
2018,12,20,14,13,29.50
2018,12,20,14,14,30.80
2018,12,20,14,15,19.30
2018,12,20,14,16,24.90
2018,12,20,14,17,20.50
2018,12,20,14,18,19.20
2018,12,20,14,19,20.30
2018,12,20,14,20,18.50
2018,12,20,14,21,20.60
2018,12,20,14,22,14.70
2018,12,20,14,23,20.20
2018,12,20,14,24,28.30
2018,12,20,14,25,27.20
2018,12,20,14,26,31.30
2018,12,20,14,27,30.50
2018,12,20,14,28,26.60
2018,12,20,14,29,24.20
2018,12,20,14,30,38.90
2018,12,20,14,31,33.30
2018,12,20,14,32,26.00
2018,12,20,14,33,28.00
2018,12,20,14,34,26.80
2018,12,20,14,35,17.50
2018,12,20,14,36,26.90
2018,12,20,14,37,26.00
2018,12,20,14,38,17.00
2018,12,20,14,39,20.00
2018,12,20,14,40,19.30
2018,12,20,14,41,24.10
2018,12,20,14,42,22.40
2018,12,20,14,43,22.60
2018,12,20,14,44,21.10
2018,12,20,14,45,33.80
2018,12,20,14,46,42.40
2018,12,20,14,47,29.60
2018,12,20,14,48,27.30
2018,12,20,14,49,25.70
2018,12,20,14,50,25.70
2018,12,20,14,51,23.10
2018,12,20,14,52,22.50
2018,12,20,14,53,24.90
2018,12,20,14,54,17.50
2018,12,20,14,55,24.30
2018,12,20,14,56,25.10
2018,12,20,14,57,28.10
2018,12,20,14,58,26.50
2018,12,20,14,59,15.90
2018,12,20,15,00,26.10
2018,12,20,15,01,31.20
2018,12,20,15,02,42.40
2018,12,20,15,03,26.20
2018,12,20,15,04,22.60
2018,12,20,15,05,7.40
2018,12,20,15,06,12.70
2018,12,20,15,07,21.00
2018,12,20,15,08,28.20
2018,12,20,15,09,28.30
2018,12,20,15,10,27.00
2018,12,20,15,11,33.80
2018,12,20,15,12,33.90
2018,12,20,15,13,30.20
2018,12,20,15,14,23.80
2018,12,20,15,15,18.00
2018,12,20,15,16,22.50
2018,12,20,15,17,22.20
2018,12,20,15,18,27.30
2018,12,20,15,19,24.60
2018,12,20,15,20,20.60
2018,12,20,15,21,28.70
2018,12,20,15,22,25.70
2018,12,20,15,23,19.90
2018,12,20,15,24,31.00
2018,12,20,15,25,38.90
2018,12,20,15,26,32.50
2018,12,20,15,27,19.60
2018,12,20,15,28,26.30
2018,12,20,15,29,27.60
2018,12,20,15,30,30.10
2018,12,20,15,31,26.10
2018,12,20,15,32,29.60
2018,12,20,15,33,35.80
2018,12,20,15,34,31.00
2018,12,20,15,35,18.60
2018,12,20,15,36,23.10
2018,12,20,15,37,18.70
2018,12,20,15,38,28.30
2018,12,20,15,39,27.90
2018,12,20,15,40,30.00
2018,12,20,15,41,25.60
2018,12,20,15,42,34.70
2018,12,20,15,43,39.00
2018,12,20,15,44,32.10
2018,12,20,15,45,36.10
2018,12,20,15,46,29.80
2018,12,20,15,47,23.80
2018,12,20,15,48,27.90
2018,12,20,15,49,25.30
2018,12,20,15,50,18.20
2018,12,20,15,51,24.10
2018,12,20,15,52,35.80
2018,12,20,15,53,25.00
2018,12,20,15,54,29.40
2018,12,20,15,55,24.70
2018,12,20,15,56,20.80
2018,12,20,15,57,18.50
2018,12,20,15,58,22.90
2018,12,20,15,59,23.30
2018,12,20,16,00,20.10
2018,12,20,16,01,16.90
2018,12,20,16,02,23.50
2018,12,20,16,03,25.50
2018,12,20,16,04,26.10
2018,12,20,16,05,20.80
2018,12,20,16,06,17.30
2018,12,20,16,07,15.50
2018,12,20,16,08,20.60
2018,12,20,16,09,18.40
2018,12,20,16,10,15.90
2018,12,20,16,11,16.80
2018,12,20,16,12,24.00
2018,12,20,16,13,20.80
2018,12,20,16,14,19.70
2018,12,20,16,15,30.60
2018,12,20,16,16,28.00
2018,12,20,16,17,25.10
2018,12,20,16,18,26.00
2018,12,20,16,19,25.10
2018,12,20,16,20,18.00
2018,12,20,16,21,19.10
2018,12,20,16,22,23.50
2018,12,20,16,23,14.60
2018,12,20,16,24,17.10
2018,12,20,16,25,21.70
2018,12,20,16,26,23.50
2018,12,20,16,27,13.80
2018,12,20,16,28,21.10
2018,12,20,16,29,19.20
2018,12,20,16,30,22.00
2018,12,20,16,31,14.80
2018,12,20,16,32,13.40
2018,12,20,16,33,11.50
2018,12,20,16,39,22.50
2018,12,20,16,40,16.70
2018,12,20,16,41,19.60
2018,12,20,16,42,17.00
2018,12,20,16,43,17.50
2018,12,20,16,44,13.00
2018,12,20,16,45,22.40
2018,12,20,16,46,14.30
2018,12,20,16,47,11.50
2018,12,20,16,48,9.20
2018,12,20,16,49,15.90
2018,12,20,16,50,15.40
2018,12,20,16,51,15.50
2018,12,20,16,52,13.90
2018,12,20,16,53,17.80
2018,12,20,16,54,10.40
2018,12,20,16,55,13.00
2018,12,20,16,56,7.90
2018,12,20,16,57,11.60
2018,12,20,16,58,10.20
2018,12,20,16,59,9.90
2018,12,20,17,00,6.80
2018,12,20,17,01,8.20
2018,12,20,17,02,4.80
2018,12,20,17,03,9.70
2018,12,20,17,04,12.50
2018,12,20,17,05,13.00
2018,12,20,17,06,4.70
2018,12,20,17,07,11.30
2018,12,20,17,08,7.10
2018,12,20,17,09,4.10
2018,12,20,17,10,14.90
2018,12,20,17,11,14.60
2018,12,20,17,12,18.30
2018,12,20,17,13,9.10
2018,12,20,17,14,8.20
2018,12,20,17,15,6.90
2018,12,20,17,16,5.50
2018,12,20,17,17,3.80
2018,12,20,17,18,3.00
2018,12,20,17,19,6.10
2018,12,20,17,20,8.00
2018,12,20,17,21,8.10
2018,12,20,17,22,8.10
2018,12,20,17,23,6.40
2018,12,20,17,24,5.70
2018,12,20,17,25,6.50
2018,12,20,17,26,9.10
2018,12,20,17,27,7.90
2018,12,20,17,28,5.10
2018,12,20,17,29,11.20
2018,12,20,17,30,9.00
2018,12,20,17,31,8.10
2018,12,20,17,32,12.40
2018,12,20,17,33,9.50
2018,12,20,17,34,4.30
2018,12,20,17,35,3.90
2018,12,20,17,36,4.50
2018,12,20,17,37,7.70
2018,12,20,17,38,9.20
2018,12,20,17,39,5.80
2018,12,20,17,40,4.20
2018,12,20,17,41,6.00
2018,12,20,17,42,4.90
2018,12,20,17,43,9.30
2018,12,20,17,44,10.70
2018,12,20,17,45,8.70
2018,12,20,17,46,8.60
2018,12,20,17,47,10.10
2018,12,20,17,48,12.00
2018,12,20,17,49,15.80
2018,12,20,17,50,9.70
2018,12,20,17,51,6.40